7 * 24
多渠道服务支持
STARLINK-37249(NORAD编号68625)是SpaceX星链(Starlink)低轨互联网星座的成员卫星,隶属于SpaceX 2015年启动的全球低轨互联网星座计划。星链项目目标在近地轨道部署4.2万颗卫星,为全球提供高速低时延互联网接入服务,填补偏远地区网络覆盖空白。STARLINK-37249运行在300-550公里近地轨道,采用Ku/Ka频段通信,作为星链组网卫星,为全球用户提供覆盖广泛的天基互联网服务,支撑偏远地区、海洋、航空等特殊场景的联网需求,是星链全球星座部署的组成部分之一。
美国
(US)
| 数据来源 | 国际轨道数据 |
| 星历时间: | 2026-09-13T09:32:02+0800 9小时前 查看轨道信息 |
| 半长轴: | 6843.675km |
| 偏心率: | 0.0001309 |
| 轨道倾角: | 97.284° |
| 近地点辐角 | 94.520° |
| 升交点赤经 | 94.225° |
| 平近点角 | 265.620° |
| 近地点: | 464.642km |
| 远地点: | 466.434km |
| 周期: | 93.906分钟 |
| 每日圈数: | 15.334468 |